Location: Newark
(58.8333°N, 23.5833°E)
Time: 23:49:29
(UTC+00:00)

S-56A Canister/Altair - Pass Details

Date: 24 November 2019
Orbit: 633 x 2499 km, 38.9° (Epoch: 11 December)

Event Time Altitude Azimuth Distance (km) Brightness Sun altitude
Rises 16:49:26 0° 249° (WSW) 5,075 13.0 -22.3°
Reaches altitude 10° 16:54:38 10° 232° (SW) 3,671 11.7 -22.9°
Maximum altitude 16:59:39 16° 198° (SSW) 2,789 10.6 -23.6°
Drops below altitude 10° 17:03:46 10° 162° (SSE) 2,892 10.3 -24.1°
Enters shadow 17:04:17 - 158° (SSE) 2,965 10.3 -24.2°
